EN

Hourly Weather Trostyanets'

Today, 11 April, Sunday

Time Temperature Precipitation Wind Pressure Humidity
00:00 +7°C° 0 mm 0 mps 739 mmHg 88%
01:00 +7°C° 0 mm 0 mps 739 mmHg 86%
02:00 +7°C° 0 mm 1 mps 739 mmHg 89%
03:00 +6°C° 0 mm 1 mps 739 mmHg 91%
04:00 +4°C° 0 mm 0 mps 739 mmHg 92%
05:00 +4°C° 0 mm 0 mps 740 mmHg 93%
06:00 +4°C° 0 mm 1 mps 740 mmHg 96%
07:00 +5°C° 0 mm 1 mps 740 mmHg 94%
08:00 +6°C° 0 mm 1 mps 740 mmHg 96%
09:00 +7°C° 0 mm 2 mps 741 mmHg 92%
10:00 +9°C° 0 mm 2 mps 741 mmHg 96%
11:00 +10°C° 0 mm 3 mps 741 mmHg 91%
12:00 +12°C° 0 mm 3 mps 741 mmHg 98%
13:00 +14°C° 0 mm 4 mps 741 mmHg 88%
14:00 +14°C° 0 mm 5 mps 741 mmHg 83%
15:00 +14°C° 0 mm 5 mps 740 mmHg 81%
16:00 +14°C° 0 mm 6 mps 740 mmHg 83%
17:00 +13°C° 0 mm 6 mps 740 mmHg 83%
18:00 +11°C° 0 mm 6 mps 740 mmHg 87%
19:00 +10°C° 0 mm 5 mps 740 mmHg 90%
20:00 +8°C° 0 mm 5 mps 740 mmHg 93%
21:00 +8°C° 0 mm 4 mps 740 mmHg 95%
22:00 +7°C° 0 mm 4 mps 740 mmHg 96%
23:00 +7°C° 0 mm 3 mps 740 mmHg 98%

Tomorrow, 12 April, Monday

Time Temperature Precipitation Wind Pressure Humidity
00:00 +6°C° 0 mm 2 mps 740 mmHg 100%
01:00 +6°C° 0 mm 1 mps 739 mmHg 100%
02:00 +6°C° 0 mm 1 mps 739 mmHg 100%
03:00 +5°C° 0 mm 1 mps 739 mmHg 100%
04:00 +5°C° 0 mm 1 mps 739 mmHg 100%
05:00 +4°C° 0 mm 1 mps 738 mmHg 100%
06:00 +3°C° 0 mm 0 mps 738 mmHg 100%
07:00 +4°C° 0 mm 0 mps 739 mmHg 100%
08:00 +5°C° 0 mm 0 mps 739 mmHg 100%
09:00 +5°C° 0 mm 0 mps 739 mmHg 100%
10:00 +8°C° 0 mm 1 mps 739 mmHg 99%
11:00 +11°C° 0 mm 1 mps 739 mmHg 97%
12:00 +13°C° 0 mm 2 mps 739 mmHg 96%
13:00 +15°C° 0 mm 2 mps 738 mmHg 86%
14:00 +14°C° 0 mm 3 mps 738 mmHg 85%
15:00 +16°C° 0 mm 3 mps 737 mmHg 78%
16:00 +16°C° 0 mm 3 mps 737 mmHg 79%
17:00 +14°C° 0 mm 4 mps 737 mmHg 89%
18:00 +14°C° 0 mm 4 mps 736 mmHg 96%
19:00 +13°C° 0 mm 4 mps 736 mmHg 97%
20:00 +12°C° 0 mm 3 mps 736 mmHg 99%
21:00 +11°C° 0 mm 3 mps 736 mmHg 99%
22:00 +10°C° 0 mm 2 mps 736 mmHg 100%
23:00 +9°C° 0 mm 2 mps 736 mmHg 100%

Day after tomorrow, 13 April, Tuesday

Time Temperature Precipitation Wind Pressure Humidity
00:00 +10°C° 0 mm 1 mps 736 mmHg 100%
01:00 +9°C° 0 mm 1 mps 735 mmHg 100%
02:00 +8°C° 0 mm 0 mps 735 mmHg 100%
03:00 +7°C° 0 mm 0 mps 735 mmHg 100%
04:00 +7°C° 0 mm 0 mps 734 mmHg 100%
05:00 +8°C° 0 mm 0 mps 734 mmHg 100%
06:00 +7°C° 0 mm 0 mps 734 mmHg 100%
07:00 +7°C° 0 mm 0 mps 734 mmHg 100%
08:00 +8°C° 0 mm 1 mps 734 mmHg 100%
09:00 +8°C° 0 mm 1 mps 734 mmHg 100%
10:00 +9°C° 0 mm 2 mps 734 mmHg 99%
11:00 +13°C° 0 mm 2 mps 734 mmHg 97%
12:00 +14°C° 0 mm 3 mps 734 mmHg 98%
13:00 +16°C° 0 mm 3 mps 734 mmHg 95%
14:00 +16°C° 1.3 mm 3 mps 733 mmHg 93%
15:00 +16°C° 0 mm 5 mps 733 mmHg 92%
16:00 +14°C° 1.4 mm 7 mps 732 mmHg 95%
17:00 +12°C° 3 mm 5 mps 732 mmHg 99%
18:00 +12°C° 1.9 mm 5 mps 732 mmHg 99%
19:00 +12°C° 0.1 mm 3 mps 732 mmHg 99%
20:00 +13°C° 0 mm 2 mps 732 mmHg 100%
21:00 +12°C° 0.1 mm 2 mps 731 mmHg 99%
22:00 +11°C° 0.1 mm 0 mps 731 mmHg 99%
23:00 +8°C° 0.8 mm 5 mps 731 mmHg 100%

14 April, Wednesday

Time Temperature Precipitation Wind Pressure Humidity
00:00 +7°C° 0.3 mm 5 mps 730 mmHg 99%
01:00 +6°C° 0 mm 4 mps 730 mmHg 98%
02:00 +6°C° 0 mm 4 mps 730 mmHg 98%
03:00 +5°C° 0 mm 3 mps 729 mmHg 99%
04:00 +6°C° 0 mm 2 mps 729 mmHg 99%
05:00 +6°C° 0 mm 2 mps 729 mmHg 98%
06:00 +6°C° 0 mm 2 mps 728 mmHg 99%
07:00 +6°C° 0.4 mm 1 mps 728 mmHg 100%
08:00 +5°C° 2.4 mm 2 mps 728 mmHg 100%
09:00 +5°C° 1.3 mm 2 mps 728 mmHg 100%
10:00 +5°C° 0.8 mm 3 mps 727 mmHg 100%
11:00 +6°C° 0.9 mm 2 mps 727 mmHg 100%
12:00 +5°C° 0.2 mm 3 mps 727 mmHg 98%
13:00 +5°C° 0 mm 4 mps 727 mmHg 98%
14:00 +6°C° 0 mm 2 mps 727 mmHg 98%
15:00 +8°C° 0 mm 3 mps 727 mmHg 99%
16:00 +9°C° 0 mm 2 mps 727 mmHg 98%
17:00 +11°C° 0 mm 1 mps 727 mmHg 98%
18:00 +11°C° 0 mm 1 mps 727 mmHg 98%
19:00 +11°C° 0 mm 1 mps 728 mmHg 99%
20:00 +9°C° 0 mm 0 mps 728 mmHg 99%
21:00 +10°C° 0 mm 1 mps 728 mmHg 100%
22:00 +9°C° 0 mm 1 mps 728 mmHg 100%
23:00 +9°C° 0 mm 1 mps 728 mmHg 100%

15 April, Thursday

Time Temperature Precipitation Wind Pressure Humidity
00:00 +7°C° 0 mm 2 mps 729 mmHg 100%
01:00 +7°C° 0 mm 2 mps 728 mmHg 98%
02:00 +7°C° 0 mm 3 mps 729 mmHg 99%
03:00 +5°C° 0 mm 3 mps 729 mmHg 100%
04:00 +5°C° 0 mm 3 mps 729 mmHg 100%
05:00 +5°C° 0.1 mm 3 mps 729 mmHg 99%
06:00 +4°C° 1.4 mm 4 mps 729 mmHg 100%
07:00 +3°C° 1.4 mm 5 mps 730 mmHg 100%
08:00 +3°C° 2.3 mm 4 mps 730 mmHg 100%
09:00 +1°C° 4 mm 4 mps 730 mmHg 100%
10:00 +3°C° 1.7 mm 4 mps 731 mmHg 99%
11:00 +3°C° 0.6 mm 5 mps 731 mmHg 99%
12:00 +3°C° 0.5 mm 6 mps 731 mmHg 99%
13:00 +4°C° 0.6 mm 6 mps 731 mmHg 99%
14:00 +4°C° 0.5 mm 6 mps 730 mmHg 99%
15:00 +5°C° 0.3 mm 7 mps 730 mmHg 99%
16:00 +5°C° 0.1 mm 8 mps 729 mmHg 97%
17:00 +4°C° 1 mm 8 mps 729 mmHg 99%
18:00 +4°C° 3.4 mm 7 mps 729 mmHg 100%
19:00 +4°C° 7.4 mm 7 mps 729 mmHg 100%
20:00 +4°C° 1 mm 8 mps 728 mmHg 100%
21:00 +3°C° 0.9 mm 7 mps 728 mmHg 100%
22:00 +3°C° 1.1 mm 7 mps 728 mmHg 100%
23:00 +3°C° 0.2 mm 7 mps 728 mmHg 100%

16 April, Friday

Time Temperature Precipitation Wind Pressure Humidity
00:00 +5°C° 1.6 mm 5 mps 728 mmHg 100%
01:00 +5°C° 1.3 mm 4 mps 728 mmHg 100%
02:00 +6°C° 1.3 mm 4 mps 729 mmHg 100%
03:00 +6°C° 0.8 mm 5 mps 729 mmHg 100%
04:00 +6°C° 1.4 mm 5 mps 730 mmHg 100%
05:00 +6°C° 0.1 mm 5 mps 730 mmHg 99%
06:00 +5°C° 0 mm 6 mps 731 mmHg 99%
07:00 +5°C° 0 mm 7 mps 732 mmHg 98%
08:00 +6°C° 0 mm 7 mps 733 mmHg 98%
09:00 +7°C° 0 mm 6 mps 733 mmHg 96%
10:00 +7°C° 0 mm 6 mps 734 mmHg 97%
11:00 +6°C° 0 mm 7 mps 734 mmHg 95%
12:00 +6°C° 0 mm 7 mps 735 mmHg 95%
13:00 +6°C° 0.1 mm 7 mps 736 mmHg 91%
14:00 +8°C° 0 mm 7 mps 737 mmHg 90%
15:00 +8°C° 0 mm 7 mps 737 mmHg 85%
16:00 +6°C° 0 mm 7 mps 738 mmHg 82%
17:00 +5°C° 0.1 mm 7 mps 738 mmHg 93%
18:00 +6°C° 0 mm 5 mps 739 mmHg 93%
19:00 +5°C° 0.2 mm 4 mps 739 mmHg 99%
20:00 +3°C° 0.2 mm 5 mps 740 mmHg 99%
21:00 +3°C° 0 mm 5 mps 740 mmHg 97%
22:00 +2°C° 0 mm 5 mps 741 mmHg 97%
23:00 +3°C° 0.1 mm 4 mps 741 mmHg 98%
Show more

We Need Your Consent

Meteoprog and our Service Providers may store and access personal data such as cookies, device identifiers or other similar technologies on your device and process such data to personalise content and ads, as well as provide social media features and to analyse the traffic.

  • Store and/or access information on your device

    Cookies, device identifiers or other information can be stored or accessed on your device for the purposes indicated above.

  • Personalised ads and content, ad and content measurement, audience insights, and products development

    Ads and content can be personalised based on a profile. More data can be added to better personalise ads and content. Ad and content performance can be measured. Insights about the audience who saw the ads and content can be derived. Such data can be used to develop or improve user’s experience, systems and software.

By clicking ‘I Agree’ you will allow the use of indicated cookies, device identifiers, web beacons or other similar technologies. Your settings can be changed in the browser on your device.

For certain purposes, legitimate interests may be relied on, rather than consent. You can read more about this in our Privacy and Cookie Policy.